Regional Weather Roundup
Issued by NWS

Home | Current Version | Previous Version | Text Only | Print | Product List | Glossary On
Versions: 1 2 3 4 5 6 7 8 9 10 11 12 13 14 15 16 17 18 19 20 21 22 23 24 25 26 27 28 29 30 31 32 33 34 35 36 37 38 39 40 41 42 43 44 45 46 47 48 49 50
173
ASUS44 KJAN 251903
RWRMS

MISSISSIPPI HOURLY WEATHER ROUNDUP
NATIONAL WEATHER SERVICE JACKSON MS
200 PM CDT FRI JUL 25 2014

NOTE: "FAIR: INDICATES FEW OR NO CLOUDS BELOW 12,000 FEET WITH NO
SIGNIFICANT WEATHER AND/OR OBSTRUCTIONS TO VISIBILITY.

MSZ001>002-007>008-010>013-018>021-025>028-034>036-252000-
NORTHWEST MISSISSIPPI

CITY           SKY/WX    TMP DP  RH WIND       PRES   REMARKS
CLARKSDALE     FAIR      82  66  57 N6        30.04S
CLEVELAND      FAIR      83  69  62 NW6       30.02F
GREENWOOD      SUNNY     85  63  47 NW7       30.02F
GREENVILLE     SUNNY     86  67  52 VRB3      30.01F
GRENADA        FAIR      84  59  42 NW7       30.03S
OLIVE BRANCH   MOSUNNY   82  63  51 CALM      30.04S
OXFORD         FAIR      81  63  54 N8        30.06S
TUNICA         CLEAR     82  61  47 NW3       30.03F
$$

MSZ003>006-009-014>017-022>024-029>033-037>039-252000-
NORTHEAST MISSISSIPPI

CITY           SKY/WX    TMP DP  RH WIND       PRES   REMARKS
BELMONT        MOCLDY    81  66  61 CALM      30.03S
COLUMBUS AFB   PTSUNNY   84  64  51 NW9       30.02S
CORINTH        FAIR      82  61  47 NE5       30.03S
GOLDN TRIANGLE PTSUNNY   86  68  54 N7        30.02F
STARKVILLE     FAIR      84  68  58 NW6       30.02R
TUPELO         SUNNY     84  62  47 NW7       30.02F
$$

MSZ040-058-252000-
CENTRAL MISSISSIPPI

CITY           SKY/WX    TMP DP  RH WIND       PRES   REMARKS
JACKSON INTL   PTSUNNY   90  71  53 NW8       30.01F HX  96
JACKSON HAWKNS MOSUNNY   89  71  55 VRB7      30.02F HX  95
MERIDIAN KEY   MOSUNNY   89  69  51 W5        29.99F HX  93
MERIDIAN NAS   MOSUNNY   90  69  50 W8        30.00F HX  94
RAYMOND        FAIR      86  82  89 NW6       30.02F HX 105
VICKSBURG      PTSUNNY   91  74  57 N7        30.01F HX 100
$$

MSZ059>079-252000-
SOUTH MISSISSIPPI

CITY           SKY/WX    TMP DP  RH WIND       PRES   REMARKS
BROOKHAVEN     FAIR      88  73  62 W6        30.04F HX  96
COLUMBIA       FAIR      91  75  59 N6        30.00F HX 102
HATTIESBURG    MOSUNNY   91  73  55 W5        30.01F HX  99
MCCOMB         MOSUNNY   91  72  53 N7        30.01F HX  98
NATCHEZ        MOSUNNY   88  73  62 CALM      30.02F HX  96
PINE BELT      SUNNY     91  72  52 W5        30.03F HX  98
$$

MSZ080>082-252000-
COASTAL MISSISSIPPI

CITY           SKY/WX    TMP DP  RH WIND       PRES   REMARKS
BAY ST LOUIS   PTSUNNY  N/A N/A N/A W8        30.00F
BILOXI         MOSUNNY   91  78  65 SW14      29.99F HX 105
PASCAGOULA     CLOUDY    88  75  65 S5        29.99F HX  97
GULFPORT       MOSUNNY   91  76  61 S7        29.98F HX 103
$$



USA.gov is the U.S. government's official web portal to all federal, state and local government web resources and services.